This is the latest recevied weather packets stored in our database for station/object KD4WXI. If no packets are shown the sender has not sent any weather packets the latest 10 day(s).
| Time | Temp. | Humidity | Pressure | Rain* | Wind** | Luminosity | Snow |
|---|---|---|---|---|---|---|---|
| 1777861049 | 8.33° C | 81% | 1017.3 hPa | 0 mm | - | 0 W/m² | - |
| 1777860746 | 8.33° C | 78% | 1017.1 hPa | 0 mm | - | 0 W/m² | - |
| 1777860443 | 8.33° C | 79% | 1017.1 hPa | 0 mm | - | 0 W/m² | - |
| 1777860140 | 8.89° C | 78% | 1017.3 hPa | 0 mm | - | 0 W/m² | - |
| 1777859836 | 8.89° C | 78% | 1016.9 hPa | 0 mm | - | 0 W/m² | - |
| 1777859533 | 8.89° C | 77% | 1017 hPa | 0 mm | - | 0 W/m² | - |
| 1777859228 | 8.89° C | 75% | 1016.7 hPa | 0 mm | - | 0 W/m² | - |
| 1777858925 | 8.89° C | 75% | 1016.9 hPa | 0 mm | - | 0 W/m² | - |
| 1777858623 | 9.44° C | 72% | 1016.8 hPa | 0 mm | - | 0 W/m² | - |
| 1777858320 | 9.44° C | 71% | 1016.9 hPa | 0 mm | - | 0 W/m² | - |
| 1777858017 | 10° C | 71% | 1016.9 hPa | 0 mm | - | 0 W/m² | - |
| 1777857715 | 10° C | 71% | 1016.7 hPa | 0 mm | - | 0 W/m² | - |
| 1777857412 | 10° C | 71% | 1016.8 hPa | 0 mm | - | 0 W/m² | - |
| 1777857108 | 10.56° C | 67% | 1016.6 hPa | 0 mm | - | 0 W/m² | - |
| 1777856804 | 10.56° C | 66% | 1016.4 hPa | 0 mm | - | 0 W/m² | - |
| 1777856500 | 11.11° C | 64% | 1016.3 hPa | 0 mm | - | 0 W/m² | - |
| 1777856197 | 11.67° C | 63% | 1016.5 hPa | 0 mm | - | 0 W/m² | - |
| 1777855893 | 11.67° C | 61% | 1016.4 hPa | 0 mm | - | 0 W/m² | - |
| 1777855592 | 11.67° C | 59% | 1016.4 hPa | 0 mm | - | 0 W/m² | - |
| 1777855289 | 12.22° C | 58% | 1016.5 hPa | 0 mm | - | 0 W/m² | - |
| 1777854985 | 12.22° C | 57% | 1016.3 hPa | 0 mm | - | 0 W/m² | - |
| 1777854681 | 12.22° C | 57% | 1016.3 hPa | 0 mm | - | 0 W/m² | - |
| 1777854378 | 12.22° C | 60% | 1016.3 hPa | 0 mm | - | 0 W/m² | - |
| 1777854076 | 12.78° C | 57% | 1016.1 hPa | 0 mm | - | 0 W/m² | - |
| 1777853774 | 13.89° C | 59% | 1016.3 hPa | 0 mm | - | 1 W/m² | - |
* Rain latest hour (hover to see other rain measurements)
** Current wind speed in m/s (hover to see current wind gust speed)